This is the latest recevied weather packets stored in our database for station/object K3TLB-13. If no packets are shown the sender has not sent any weather packets the latest 10 day(s).
| Time | Temp. | Humidity | Pressure | Rain* | Wind** | Luminosity | Snow |
|---|---|---|---|---|---|---|---|
| 1778113737 | 16.11° C | 73% | 1010.1 hPa | 0 mm | - | - | - |
| 1778113710 | 16.67° C | 76% | 1009.9 hPa | 0 mm | - | - | - |
| 1778113438 | 16.11° C | 74% | 1009.9 hPa | 0 mm | - | - | - |
| 1778113137 | 16.67° C | 76% | 1009.9 hPa | 0 mm | - | - | - |
| 1778112904 | 16.67° C | 77% | 1009.7 hPa | 0 mm | - | - | - |
| 1778112854 | 16.67° C | 77% | 1009.8 hPa | 0 mm | - | - | - |
| 1778112837 | 16.67° C | 77% | 1009.7 hPa | 0 mm | - | - | - |
| 1778112537 | 16.67° C | 77% | 1009.8 hPa | 0 mm | - | - | - |
| 1778112307 | 16.67° C | 79% | 1009.7 hPa | 0 mm | - | - | - |
| 1778112237 | 16.67° C | 79% | 1009.7 hPa | 0 mm | - | - | - |
| 1778111996 | 16.67° C | 80% | 1009.7 hPa | 0 mm | - | - | - |
| 1778111937 | 16.67° C | 80% | 1009.7 hPa | 0 mm | - | - | - |
| 1778111765 | 16.67° C | 80% | 1009.6 hPa | 0 mm | - | - | - |
| 1778111705 | 16.67° C | 80% | 1009.6 hPa | 0 mm | - | - | - |
| 1778111637 | 16.67° C | 80% | 1009.6 hPa | 0 mm | - | - | - |
| 1778111384 | 17.22° C | 78% | 1009.2 hPa | 0 mm | - | - | - |
| 1778111339 | 17.22° C | 78% | 1009.2 hPa | 0 mm | - | - | - |
| 1778111039 | 17.22° C | 78% | 1008.7 hPa | 0 mm | - | - | - |
| 1778110737 | 17.22° C | 77% | 1008.8 hPa | 0 mm | - | - | - |
| 1778110437 | 17.22° C | 79% | 1008.9 hPa | 0 mm | - | - | - |
| 1778110137 | 17.22° C | 79% | 1009 hPa | 0 mm | - | - | - |
| 1778109872 | 17.22° C | 79% | 1008.9 hPa | 0 mm | - | - | - |
| 1778109837 | 17.22° C | 79% | 1008.9 hPa | 0 mm | - | - | - |
| 1778109573 | 17.78° C | 79% | 1008.9 hPa | 0 mm | - | - | - |
| 1778109538 | 17.78° C | 79% | 1008.9 hPa | 0 mm | - | - | - |
* Rain latest hour (hover to see other rain measurements)
** Current wind speed in m/s (hover to see current wind gust speed)